Time,TemperatureF,DewpointF,PressureIn,WindDirection,WindDirectionDegrees,WindSpeedMPH,WindSpeedGustMPH,Humidity,HourlyPrecipIn,Conditions,Clouds,dailyrainin,SoftwareType,DateUTC
2013-12-06 00:00:00,60.1,59.8,29.88,SSW,200,0.0,2.0,99,0.00,,,0.01,Wunderground v.1.13,2013-12-06 05:00:00,
2013-12-06 00:10:00,59.8,59.5,29.87,SSW,200,0.0,2.0,99,0.00,,,0.01,Wunderground v.1.13,2013-12-06 05:10:00,
2013-12-06 00:20:00,59.7,59.7,29.87,SSW,200,0.0,2.0,100,0.00,,,0.01,Wunderground v.1.13,2013-12-06 05:20:00,
2013-12-06 00:30:00,59.5,59.5,29.87,SSW,200,0.0,2.0,100,0.00,,,0.00,Wunderground v.1.13,2013-12-06 05:30:00,
2013-12-06 00:40:00,59.5,59.5,29.87,SSW,200,0.0,2.0,100,0.00,,,0.00,Wunderground v.1.13,2013-12-06 05:40:00,
2013-12-06 00:50:00,59.8,59.8,29.87,SSW,200,0.0,2.0,100,0.00,,,0.00,Wunderground v.1.13,2013-12-06 05:50:00,
2013-12-06 01:00:00,59.5,59.5,29.85,SSW,200,0.0,2.0,100,0.00,,,0.00,Wunderground v.1.13,2013-12-06 06:00:00,
2013-12-06 01:10:00,59.5,59.5,29.86,SSW,200,0.0,2.0,100,0.00,,,0.00,Wunderground v.1.13,2013-12-06 06:10:00,
2013-12-06 01:20:00,59.5,59.5,29.86,SSW,200,0.0,2.0,100,0.00,,,0.00,Wunderground v.1.13,2013-12-06 06:20:00,
2013-12-06 01:30:00,58.8,58.8,29.86,SSW,200,0.0,2.0,100,0.00,,,0.00,Wunderground v.1.13,2013-12-06 06:30:00,
2013-12-06 01:40:00,58.8,58.8,29.86,SSW,200,0.0,2.0,100,0.00,,,0.00,Wunderground v.1.13,2013-12-06 06:40:00,
2013-12-06 01:50:00,58.6,58.6,29.86,SSW,200,0.0,2.0,100,0.00,,,0.00,Wunderground v.1.13,2013-12-06 06:50:00,
2013-12-06 02:00:00,58.3,58.3,29.86,SSW,200,0.0,2.0,100,0.00,,,0.00,Wunderground v.1.13,2013-12-06 07:00:00,
2013-12-06 02:10:00,58.2,58.2,29.87,SSW,200,0.0,2.0,100,0.00,,,0.00,Wunderground v.1.13,2013-12-06 07:10:00,
2013-12-06 02:20:00,58.5,58.5,29.87,SSW,201,0.0,2.0,100,0.00,,,0.00,Wunderground v.1.13,2013-12-06 07:20:00,
2013-12-06 02:30:00,58.9,58.9,29.87,WNW,287,0.0,2.0,100,0.00,,,0.00,Wunderground v.1.13,2013-12-06 07:30:00,
2013-12-06 02:40:00,58.6,58.6,29.88,NNW,336,0.0,2.0,100,0.00,,,0.00,Wunderground v.1.13,2013-12-06 07:40:00,
2013-12-06 02:50:00,58.0,57.4,29.88,WNW,301,1.0,1.0,98,0.00,,,0.00,Wunderground v.1.13,2013-12-06 07:50:00,
2013-12-06 03:00:00,57.7,57.1,29.87,WNW,301,0.0,2.0,98,0.00,,,0.00,Wunderground v.1.13,2013-12-06 08:00:00,
2013-12-06 03:10:00,57.4,56.6,29.88,West,263,0.0,2.0,97,0.00,,,0.00,Wunderground v.1.13,2013-12-06 08:10:00,
2013-12-06 03:20:00,56.9,56.1,29.88,West,263,0.0,2.0,97,0.00,,,0.00,Wunderground v.1.13,2013-12-06 08:20:00,
2013-12-06 03:30:00,56.6,55.5,29.88,West,263,0.0,2.0,96,0.00,,,0.00,Wunderground v.1.13,2013-12-06 08:30:00,
2013-12-06 03:40:00,56.5,55.4,29.87,SSW,198,0.0,2.0,96,0.00,,,0.00,Wunderground v.1.13,2013-12-06 08:40:00,
2013-12-06 03:50:00,56.4,55.6,29.87,SSW,198,0.0,2.0,97,0.00,,,0.00,Wunderground v.1.13,2013-12-06 08:50:00,
2013-12-06 04:00:00,56.1,55.0,29.88,SSW,198,0.0,2.0,96,0.00,,,0.00,Wunderground v.1.13,2013-12-06 09:00:00,
2013-12-06 04:10:00,55.9,54.8,29.88,SSW,198,0.0,2.0,96,0.00,,,0.00,Wunderground v.1.13,2013-12-06 09:10:00,
2013-12-06 04:20:00,55.6,54.5,29.88,SSW,198,0.0,2.0,96,0.00,,,0.00,Wunderground v.1.13,2013-12-06 09:20:00,
2013-12-06 04:30:00,55.3,54.5,29.88,SSW,198,0.0,2.0,97,0.00,,,0.00,Wunderground v.1.13,2013-12-06 09:30:00,
2013-12-06 04:40:00,55.2,54.1,29.87,SSW,198,0.0,2.0,96,0.00,,,0.00,Wunderground v.1.13,2013-12-06 09:40:00,
2013-12-06 04:50:00,55.0,53.9,29.87,SSW,198,0.0,2.0,96,0.00,,,0.00,Wunderground v.1.13,2013-12-06 09:50:00,
2013-12-06 05:00:00,54.9,53.8,29.87,SSW,198,0.0,2.0,96,0.00,,,0.00,Wunderground v.1.13,2013-12-06 10:00:00,
2013-12-06 05:10:00,54.7,53.6,29.86,SSW,198,0.0,2.0,96,0.00,,,0.00,Wunderground v.1.13,2013-12-06 10:10:00,
2013-12-06 05:20:00,54.6,53.5,29.86,SSW,198,0.0,2.0,96,0.00,,,0.00,Wunderground v.1.13,2013-12-06 10:20:00,
2013-12-06 05:30:00,54.4,53.3,29.86,WSW,240,0.0,2.0,96,0.00,,,0.00,Wunderground v.1.13,2013-12-06 10:30:00,
2013-12-06 05:40:00,54.1,53.3,29.83,WSW,240,0.0,2.0,97,0.00,,,0.00,Wunderground v.1.13,2013-12-06 10:40:00,